[[{"header":{"parameterUnit":"m.s-1","parameterCategory":1,"la1":30.2991,"la2":30.254,"lo1":-89.0895,"lo2":-89.0444,"dy":0.0017,"dx":0.0017,"nx":28,"ny":28,"refTime":"2023-10-14T21:00:00:Z","depth":0,"parameterNumber":2,"parameterNumberName":"U-component_of_WINDS"},"data":[0,0,0,0,0,0,0,0,0,0,0,0,0,0,0,0,0,0,0,0,0,0,0,0,0,0,0,0,0,0,0,0,0,0,0,0,0,0,0,0,0,0,0,0,0,0,0,0,0,0,0,0,0,0,0,0,0,0,2.9906,2.9906,0,2.9905,2.9905,2.9905,2.9867,2.9866,2.9865,2.9865,2.9863,2.9863,2.9864,0,0,0,0,0,0,0,0,0,0,0,0,0,2.9878,2.9879,2.9906,2.9906,2.9906,2.9905,2.9905,2.9905,2.9868,2.9866,2.9865,2.9864,2.9862,2.9863,2.9864,0,0,0,0,0,0,0,0,0,0,0,0,0,2.9885,2.9879,2.9906,2.9887,2.9886,2.9905,2.9905,2.9905,2.9868,2.9866,2.9865,2.9864,2.9862,2.9863,2.9864,2.9901,0,0,2.9868,2.9869,0,0,0,0,0,0,0,0,2.9884,2.9886,2.989,2.9889,2.9887,2.9885,2.9894,2.9903,2.9868,2.9875,2.9864,2.9863,2.9871,2.9871,2.9874,2.9901,2.9901,2.9868,2.9869,2.987,2.987,0,0,0,0,0,0,0,2.9884,2.9886,2.9905,2.989,2.9888,2.9879,2.9879,2.9896,2.9881,2.9874,2.9871,2.9872,2.987,2.9873,2.9874,2.9901,2.9868,2.9869,2.987,2.9871,2.996,2.9962,0,0,0,0,0,0,2.9886,2.9885,2.9905,2.9905,2.9882,2.9881,2.988,2.9887,2.9881,2.9878,2.9873,2.987,2.9872,2.9873,2.9874,2.9918,2.987,2.9871,2.9872,2.9959,2.9961,2.9962,0,0,0,0,0,0,2.9885,2.9888,2.9906,2.9895,2.9896,2.9883,2.9891,2.9888,2.9891,2.988,2.9877,2.9879,2.9871,2.9872,2.9895,2.9917,2.9871,2.9873,2.9957,2.9959,2.9961,3.0005,0,0,0,0,0,0,2.9885,2.9888,2.9901,2.9895,2.9897,2.9927,2.9892,2.9889,2.9893,2.9889,2.9885,2.9883,2.987,2.9894,2.9897,2.9918,2.9874,2.9955,2.9958,2.9961,3.0002,3.0009,3.0015,0,0,0,0,0,2.9884,2.9913,2.9902,2.9905,2.9913,2.9928,2.9929,2.9914,2.9895,2.9909,2.9902,2.9883,2.9915,2.9896,2.9899,2.9922,2.9953,2.9957,2.996,2.9999,3.0007,3.0015,0,0,0,0,0,0,2.9921,2.9912,2.99,2.9928,2.9929,2.9922,2.9938,2.9923,2.9929,2.9925,2.9906,2.9905,2.9932,2.9929,2.9909,2.9958,2.9931,2.9935,2.9959,2.9967,2.9973,2.9973,2.9875,0,0,0,0,0,2.9933,2.9945,2.9936,2.9962,2.9963,2.9951,2.9957,2.9945,2.9946,2.9946,2.9941,2.9942,2.9952,2.9959,2.9968,3.0002,3.0001,3.0019,3.0025,3.0031,3.0035,3.0054,3.0062,2.9974,2.9974,2.9974,0,0,2.9956,2.9953,2.9962,2.997,2.9969,2.9983,2.9951,2.9967,2.9978,2.9948,2.997,2.9967,2.9967,2.9996,3.0008,2.9994,3.0059,3.0035,3.004,3.0041,3.0059,3.0067,3.0074,2.9977,2.9976,2.9976,0,0,3.0007,3.0005,3.0027,3.0028,3.0028,3.002,3.0026,3.0022,3.0018,3.004,3.0019,3.0032,3.005,3.0051,3.0055,3.0109,3.0092,3.0113,3.0147,3.0166,3.0173,3.0179,3.02,3.0207,3.0117,3.0117,3.0117,0,3.0036,3.0056,3.004,3.0058,3.0063,3.0038,3.0061,3.0063,3.0066,3.007,3.0055,3.0078,3.0077,3.0107,3.012,3.0123,3.013,3.0113,3.0173,3.0179,3.0185,3.0204,3.0212,3.012,3.0119,3.0119,3.0119,0,3.0093,3.0108,3.0125,3.013,3.0137,3.0157,3.0145,3.0154,3.0143,3.0137,3.0161,3.0159,3.0168,3.0174,3.0162,3.0203,3.0195,3.0177,3.0149,3.0196,3.0214,3.0221,3.0123,3.0122,3.0122,3.0121,0,0,3.0165,3.0163,3.017,3.0173,3.0173,3.0184,3.0204,3.0213,3.0222,3.0226,3.0243,3.026,3.0244,3.0248,3.0237,3.0254,3.0299,3.0234,3.0234,3.0247,3.0346,3.036,3.0368,3.0288,3.029,3.0291,3.0346,0,3.0214,3.0248,3.0236,3.0271,3.0285,3.0263,3.0281,3.0284,3.0279,3.0291,3.0286,3.0299,3.0277,3.0279,3.0295,3.029,3.0319,3.0286,3.0305,3.0306,3.0305,3.0378,3.0392,3.0444,3.0353,3.0354,3.0355,0,3.0276,3.0284,3.0321,3.0321,3.0326,3.0342,3.0351,3.0363,3.0366,3.0362,3.0368,3.0354,3.0374,3.0347,3.0376,3.0354,3.0362,3.0361,3.0363,3.0363,3.0333,3.0381,3.046,3.0468,3.0366,3.0365,3.0364,0,3.0326,3.0346,3.0371,3.0374,3.0374,3.0386,3.0387,3.0389,3.0396,3.0404,3.0409,3.042,3.0425,3.0434,3.0424,3.0405,3.0455,3.0426,3.0453,3.0453,3.0464,3.0463,3.0545,3.0468,3.0468,3.0468,3.0468,0,3.0383,3.0407,3.0394,3.0409,3.0436,3.0422,3.0449,3.0447,3.045,3.0465,3.0447,3.0462,3.0447,3.0461,3.0453,3.048,3.0482,3.048,3.0477,3.0482,3.0482,3.0486,3.0482,3.047,3.047,3.0469,3.0469,0,3.0443,3.0435,3.0461,3.046,3.0461,3.048,3.048,3.0494,3.049,3.051,3.0514,3.0506,3.0522,3.0513,3.0529,3.0524,3.0558,3.0551,3.0557,3.0555,3.0583,3.0581,3.067,3.0682,3.0597,3.0598,3.0598,0,3.048,3.0498,3.0499,3.0509,3.0511,3.0526,3.0534,3.0522,3.0531,3.0538,3.0552,3.0567,3.0577,3.0604,3.06,3.0613,3.0606,3.0637,3.0608,3.0612,3.0607,3.0607,3.0609,3.0642,3.0643,3.0644,3.0645,0,3.0546,3.0542,3.0554,3.0566,3.0577,3.0585,3.0592,3.0601,3.0589,3.0601,3.0617,3.0626,3.0643,3.0658,3.067,3.0671,3.0657,3.0654,3.0661,3.0665,3.0669,3.0668,3.0574,3.0652,3.0651,3.0651,3.065,3.065,3.0596,3.0612,3.0616,3.0631,3.0636,3.0643,3.0658,3.0656,3.0669,3.0683,3.0675,3.0695,3.07,3.0714,3.0717,3.0733,3.0721,3.0731,3.0733,3.0736,3.074,3.0667,3.0735,3.0735,3.0735,3.0735,3.0734,0,3.0663,3.0665,3.0679,3.069,3.0702,3.0689,3.0696,3.0708,3.0725,3.0731,3.0743,3.0763,3.0778,3.0777,3.0791,3.0804,3.0798,3.0809,3.0807,3.0808,3.075,3.0743,3.0813,3.0813,3.0813,3.0813,3.0813,3.0813,3.0699,3.0725,3.0722,3.0751,3.0753,3.0773,3.0779,3.0786,3.0791,3.0815,3.0828,3.0827,3.0831,3.0845,3.0859,3.0859,3.0865,3.0878,3.0875,3.082,3.0812,3.0805,3.0798,3.0879,3.0879,3.0932,3.0933,3.0933]},{"header":{"parameterUnit":"m.s-1","parameterCategory":1,"la1":30.2991,"la2":30.254,"lo1":-89.0895,"lo2":-89.0444,"dy":0.0017,"dx":0.0017,"nx":28,"ny":28,"refTime":"2023-10-14T21:00:00:Z","depth":0,"parameterNumber":3,"parameterNumberName":"V-component_of_WINDS"},"data":[0,0,0,0,0,0,0,0,0,0,0,0,0,0,0,0,0,0,0,0,0,0,0,0,0,0,0,0,0,0,0,0,0,0,0,0,0,0,0,0,0,0,0,0,0,0,0,0,0,0,0,0,0,0,0,0,0,0,-5.9802,-5.9802,0,-5.9842,-5.9842,-5.9843,-5.983,-5.9829,-5.9829,-5.9828,-5.9865,-5.9867,-5.9869,0,0,0,0,0,0,0,0,0,0,0,0,0,-5.9714,-5.9715,-5.9802,-5.9802,-5.9803,-5.9842,-5.9842,-5.9843,-5.983,-5.9829,-5.9828,-5.9827,-5.9865,-5.9867,-5.9869,0,0,0,0,0,0,0,0,0,0,0,0,0,-5.9752,-5.9716,-5.9802,-5.9802,-5.9802,-5.9842,-5.9842,-5.9843,-5.9831,-5.9829,-5.9828,-5.9827,-5.9864,-5.9866,-5.9869,-5.991,0,0,-5.9877,-5.9878,0,0,0,0,0,0,0,0,-5.975,-5.9756,-5.9801,-5.9802,-5.9802,-5.983,-5.9825,-5.9865,-5.9831,-5.982,-5.9828,-5.9826,-5.9854,-5.9858,-5.9868,-5.9912,-5.9914,-5.9877,-5.9879,-5.988,-5.9881,0,0,0,0,0,0,0,-5.9748,-5.9754,-5.9818,-5.9802,-5.9802,-5.9799,-5.9803,-5.9832,-5.9843,-5.9821,-5.982,-5.9825,-5.9854,-5.9865,-5.9868,-5.9914,-5.9877,-5.988,-5.9881,-5.9882,-5.9997,-5.9998,0,0,0,0,0,0,-5.9745,-5.9752,-5.9816,-5.9819,-5.9773,-5.9802,-5.9806,-5.9822,-5.9843,-5.9845,-5.9826,-5.9824,-5.9861,-5.9865,-5.987,-5.9921,-5.988,-5.9883,-5.9884,-5.9995,-5.9997,-5.9999,0,0,0,0,0,0,-5.9743,-5.9751,-5.9815,-5.9785,-5.9793,-5.9804,-5.9822,-5.9824,-5.9835,-5.9847,-5.9849,-5.9835,-5.986,-5.9866,-5.9901,-5.9922,-5.9884,-5.9886,-5.9994,-5.9996,-5.9998,-6.0022,0,0,0,0,0,0,-5.9741,-5.975,-5.9766,-5.9786,-5.9795,-5.9846,-5.9824,-5.9825,-5.984,-5.9838,-5.9856,-5.9858,-5.986,-5.9897,-5.9904,-5.9925,-5.9888,-5.9992,-5.9995,-5.9997,-6.002,-6.0025,-6.0029,0,0,0,0,0,-5.9738,-5.977,-5.9767,-5.9775,-5.9815,-5.9847,-5.9852,-5.9855,-5.9841,-5.9857,-5.9866,-5.9857,-5.9919,-5.9901,-5.9908,-5.993,-5.9991,-5.9994,-5.9997,-6.0017,-6.0024,-6.0029,0,0,0,0,0,0,-5.975,-5.9772,-5.9769,-5.9809,-5.9827,-5.9845,-5.9865,-5.9861,-5.9882,-5.9879,-5.988,-5.9884,-5.9921,-5.9929,-5.9909,-5.9972,-5.9953,-5.9957,-5.9965,-5.9972,-5.9977,-5.9974,-5.989,0,0,0,0,0,-5.9758,-5.9784,-5.9801,-5.9835,-5.9844,-5.9853,-5.9867,-5.9868,-5.9885,-5.9892,-5.9903,-5.992,-5.9943,-5.9958,-5.998,-6.0021,-6.0025,-6.004,-6.0045,-6.0049,-6.0053,-6.0077,-6.0084,-6.001,-6.0009,-6.0009,0,0,-5.9774,-5.9789,-5.9804,-5.9838,-5.9851,-5.9877,-5.9859,-5.9886,-5.9906,-5.9896,-5.993,-5.9939,-5.9958,-5.9997,-6.0015,-6.0005,-6.0075,-6.0053,-6.0056,-6.0058,-6.0081,-6.0088,-6.0094,-6.0012,-6.0011,-6.0011,0,0,-5.9816,-5.983,-5.986,-5.9875,-5.9897,-5.9904,-5.9911,-5.9931,-5.9937,-5.9972,-5.9966,-5.9988,-6.0028,-6.0042,-6.0054,-6.0106,-6.0099,-6.0113,-6.0138,-6.0162,-6.0167,-6.0173,-6.0191,-6.0198,-6.0117,-6.0117,-6.0117,0,-5.9832,-5.9872,-5.9876,-5.9905,-5.992,-5.9915,-5.9946,-5.996,-5.9987,-5.9997,-5.9987,-6.0038,-6.005,-6.0093,-6.0106,-6.0116,-6.0125,-6.011,-6.0166,-6.0172,-6.0177,-6.0194,-6.0202,-6.0118,-6.0118,-6.0118,-6.0118,0,-5.9891,-5.9919,-5.9941,-5.997,-5.9987,-6.0017,-6.0026,-6.0043,-6.0043,-6.0051,-6.0088,-6.0103,-6.0128,-6.0139,-6.0138,-6.0183,-6.0176,-6.0166,-6.0146,-6.0185,-6.0202,-6.0209,-6.012,-6.012,-6.0119,-6.0119,0,0,-5.9939,-5.9973,-5.9981,-5.9995,-6.002,-6.0041,-6.0072,-6.0099,-6.0114,-6.0133,-6.0159,-6.0194,-6.0186,-6.02,-6.0201,-6.0222,-6.0263,-6.021,-6.021,-6.0219,-6.0314,-6.0321,-6.0329,-6.0259,-6.0261,-6.0262,-6.0312,0,-5.9984,-6.0038,-6.0045,-6.0093,-6.0119,-6.0116,-6.0143,-6.0161,-6.017,-6.0193,-6.0202,-6.0227,-6.0214,-6.0223,-6.0244,-6.0253,-6.0282,-6.025,-6.0282,-6.0283,-6.0277,-6.0337,-6.0345,-6.0392,-6.0319,-6.032,-6.0321,0,-6.0042,-6.0066,-6.0118,-6.0142,-6.0153,-6.0177,-6.0203,-6.0225,-6.0246,-6.0252,-6.0269,-6.0269,-6.03,-6.028,-6.0323,-6.0301,-6.0315,-6.0322,-6.0324,-6.0327,-6.0304,-6.0341,-6.0406,-6.0413,-6.0331,-6.033,-6.0329,0,-6.0073,-6.0118,-6.0155,-6.0167,-6.0196,-6.0213,-6.0226,-6.0246,-6.0262,-6.0286,-6.0296,-6.0322,-6.0336,-6.0356,-6.0363,-6.0347,-6.0406,-6.0386,-6.0411,-6.0411,-6.0422,-6.0421,-6.049,-6.0432,-6.0432,-6.0432,-6.0431,0,-6.0122,-6.0153,-6.017,-6.0193,-6.0229,-6.0236,-6.0271,-6.0283,-6.0301,-6.0326,-6.0325,-6.0348,-6.0356,-6.038,-6.0385,-6.0421,-6.0427,-6.0432,-6.0433,-6.0432,-6.0431,-6.044,-6.0437,-6.0433,-6.0433,-6.0433,-6.0432,0,-6.0162,-6.0174,-6.0215,-6.024,-6.0247,-6.0273,-6.0294,-6.0316,-6.0326,-6.0357,-6.0365,-6.038,-6.0409,-6.0418,-6.0452,-6.0456,-6.0498,-6.0496,-6.0491,-6.0491,-6.0515,-6.0513,-6.0592,-6.0603,-6.0538,-6.0538,-6.0539,0,-6.0191,-6.0216,-6.0245,-6.0263,-6.0277,-6.0305,-6.0323,-6.0332,-6.035,-6.0378,-6.0397,-6.0426,-6.045,-6.0497,-6.051,-6.0537,-6.0535,-6.0561,-6.0539,-6.0538,-6.0536,-6.0534,-6.0537,-6.0565,-6.0566,-6.0566,-6.0567,0,-6.0244,-6.0249,-6.0276,-6.0306,-6.0328,-6.0351,-6.0373,-6.0387,-6.04,-6.0421,-6.0452,-6.0471,-6.0507,-6.0537,-6.0565,-6.0577,-6.0574,-6.0574,-6.0581,-6.058,-6.0577,-6.0579,-6.0502,-6.0572,-6.0571,-6.0571,-6.0571,-6.057,-6.0279,-6.0302,-6.0327,-6.0357,-6.0376,-6.0398,-6.042,-6.0434,-6.0461,-6.0493,-6.0496,-6.053,-6.0552,-6.059,-6.0604,-6.063,-6.0622,-6.0632,-6.0635,-6.0637,-6.0639,-6.0573,-6.0635,-6.0634,-6.0634,-6.0634,-6.0634,0,-6.0332,-6.0349,-6.0377,-6.0409,-6.0434,-6.0431,-6.0457,-6.0477,-6.0507,-6.0529,-6.0553,-6.059,-6.0619,-6.0636,-6.0665,-6.0683,-6.0682,-6.069,-6.0688,-6.0691,-6.0644,-6.0635,-6.069,-6.069,-6.069,-6.069,-6.069,-6.069,-6.0362,-6.0401,-6.041,-6.0459,-6.0475,-6.0509,-6.0524,-6.0544,-6.0562,-6.0603,-6.0628,-6.064,-6.066,-6.0691,-6.0718,-6.0722,-6.0733,-6.0742,-6.0745,-6.07,-6.0694,-6.0689,-6.0681,-6.0744,-6.0744,-6.079,-6.079,-6.0791]}]]